[Date Prev][Date Next][Thread Prev][Thread Next] - [Date Index][Thread Index][Author Index]

2 Line ISS Keps 10-15



ISS
1 25544U 98067A   01288.11947917  .00054908  00000-0  75288-3 0  6039
2 25544  51.6399 205.2991 0007966 201.1918   0.6669 15.56780973165799


----
Via the sarex mailing list at AMSAT.ORG courtesy of AMSAT-NA.
To unsubscribe, send "unsubscribe sarex" to Majordomo@amsat.org



AMSAT Top AMSAT Home